Location: Doazit
(43.6917°N, 0.6450°W)
Time: 00:25:43
(UTC+00:00)

Daily predictions for brighter satellites

Satellite Brightness Start Highest point End
(mag) Time Altitude Azimuth Time Altitude Azimuth Time Altitude Azimuth
Cosmos 1378 Rocket 4.2 00:04:16 40° WSW 00:04:54 43° WNW 00:09:07 10° N
Cosmos 1674 Rocket 4.0 00:05:41 47° WSW 00:06:11 50° WNW 00:10:26 10° N
Cosmos 2151 Rocket 4.2 00:05:51 10° NNW 00:10:00 42° W 00:10:13 42° W
Cosmos 1898 Rocket 3.7 00:13:33 47° SE 00:14:17 52° ESE 00:19:19 10° NNE
Okean 2 Rocket 3.8 00:11:32 10° NNW 00:15:44 41° W 00:16:03 41° WSW
ALOS 2 3.8 00:17:02 30° W 00:17:08 30° W 00:21:00 10° NW
GEOS 3 Rocket 3.8 00:16:44 10° NE 00:21:43 48° ESE 00:22:15 46° SE
Cosmos 2074 Rocket 4.2 00:21:27 39° SW 00:23:37 60° W 00:29:46 10° N
In-Cosmos 22 Rocket 4.5 00:27:54 43° SSE 00:29:34 61° E 00:35:19 10° NNE
Cosmos 1328 4.3 00:29:42 47° WNW 00:29:42 47° WNW 00:33:28 10° N
Helios 1A Rocket 4.5 00:32:17 22° E 00:33:26 25° ENE 00:36:35 10° NNE
Cosmos 1606 4.0 00:31:49 10° NNE 00:34:59 29° ENE 00:35:21 28° E
Cosmos 1869 4.3 00:35:41 10° N 00:39:03 33° ENE 00:39:31 31° E
Cosmos 2341 Rocket 4.3 00:36:54 37° SSE 00:39:09 57° E 00:45:15 10° NNE
CENTAUR R/B 3.1 00:35:45 23° WSW 00:39:18 51° NW 00:46:12 10° NNE
SL-16 R/B 2.2 00:36:14 10° NNW 00:41:52 64° WSW 00:43:10 49° SSW
Cosmos 1461 2.6 00:43:01 88° NW 00:43:01 88° NW 00:46:55 10° NNE
Cosmos 2237 Rocket 3.9 00:42:01 10° WNW 00:45:36 17° W 00:46:00 17° WSW
Cosmos 1680 Rocket 3.9 00:44:07 10° NNW 00:49:16 58° ENE 00:51:39 31° SE
Cosmos 292 Rocket 4.1 00:48:11 45° WSW 00:49:18 56° WNW 00:54:03 10° NNE
Cosmos 2227 Rocket 3.7 00:46:33 17° WSW 00:50:00 30° NW 00:54:57 10° N
Cosmos 2228 4.4 00:46:11 10° N 00:50:04 32° ENE 00:51:38 24° ESE
Cosmos 2082 3.7 00:48:25 44° SW 00:50:13 74° WNW 00:55:52 10° NNE
Cosmos 1943 3.8 00:47:06 10° NNW 00:52:35 52° ENE 00:56:23 20° SE
CRYOSAT 2 4.4 00:48:02 10° N 00:52:56 69° E 00:54:08 49° SSE
Aureole 1 Rocket 3.5 00:53:40 41° W 00:54:12 44° WNW 00:58:35 10° N
Resurs 1-4 Rocket 3.9 00:56:48 10° NE 01:00:45 21° E 01:03:22 15° SE
USA 238 DEB 4.0 00:59:38 35° SSE 01:01:32 45° ESE 01:07:45 10° NE
USA 238 4.0 00:59:41 35° SSE 01:01:34 45° ESE 01:07:48 10° NE
BREEZE-M DEB (TANK) 2.1 00:59:27 10° WNW 01:04:15 66° WNW 01:04:15 66° WNW
Cosmos 2218 Rocket 4.0 01:07:06 38° S 01:09:40 77° E 01:15:51 10° N
H-2A R/B 3.6 01:07:04 10° NNW 01:10:24 23° WNW 01:11:28 21° W
Cosmos 1818 3.5 01:05:07 10° NW 01:10:36 71° WSW 01:12:28 41° SSE
Cosmos 2366 rocket 4.0 01:08:29 38° S 01:11:04 82° E 01:17:19 10° N
Cosmos 1544 Rocket 3.5 01:09:11 10° N 01:13:38 79° E 01:14:42 51° SSE
Cosmos 372 Rocket 4.4 01:15:43 36° WSW 01:17:30 52° WNW 01:22:37 10° NNE
Cosmos 2219 4.5 01:14:58 19° WSW 01:18:03 32° NW 01:23:03 10° N
Cosmos 1975 Rocket 4.0 01:25:49 31° W 01:26:41 34° WNW 01:30:42 10° N
Cosmos 2227 4.2 01:26:28 39° SSW 01:28:43 88° ESE 01:34:31 10° NNE
Cosmos 921 Rocket 4.2 01:24:53 10° N 01:28:50 38° ENE 01:31:45 16° SE
Cosmos 1844 4.2 01:32:48 30° SSE 01:35:20 51° ESE 01:40:56 10° NE
IDEFIX/ARIANE 42P 3.0 01:30:15 10° NNE 01:35:24 56° E 01:37:48 30° SSE
Cosmos 2263 Rocket 3.4 01:33:27 19° WSW 01:36:31 32° NW 01:41:28 10° N
SL-8 Rocket 4.3 01:37:14 32° SW 01:39:54 53° WNW 01:45:59 10° N
MSX 4.2 01:35:02 10° NNE 01:40:40 55° E 01:43:47 26° SSE
NOSS 3-2 (C) 3.7 01:42:25 25° WSW 01:45:22 53° NW 01:51:27 10° NNE
Cosmos 1606 Rocket 4.3 01:44:31 10° N 01:48:51 49° ENE 01:51:46 19° SSE
Meteor 2-13 Rocket 4.4 01:44:58 10° N 01:51:07 89° E 01:55:06 23° S
Cosmos 1844 Rocket 2.6 01:51:37 33° SSW 01:54:15 82° ESE 01:59:51 10° NNE
CZ-2C R/B 3.6 01:50:14 10° NNE 01:55:24 50° E 01:58:25 22° SSE
Cosmos 1536 Rocket 3.7 01:54:55 39° SW 01:56:23 61° W 02:00:46 10° N
SL-16 R/B 3.8 01:51:31 10° SE 01:57:15 40° ENE 02:02:58 10° N
Cosmos 1867 3.7 01:55:11 31° SW 01:57:52 73° NW 02:03:22 10° NNE
MOZ.5/SAFIR/RUBIN 5/SL-8 4.0 01:59:17 35° SSW 02:00:54 52° W 02:05:26 10° NNW
Cosmos 1726 Rocket 4.3 01:58:23 10° N 02:02:44 51° ENE 02:06:13 15° SSE
Cosmos 1727 Rocket 4.0 01:59:06 10° NNW 02:05:26 74° W 02:09:39 22° S
Helios 1A Rocket 4.1 02:07:37 24° W 02:07:41 24° W 02:10:47 10° NW
H-2A R/B 3.3 02:04:25 10° N 02:08:25 81° WNW 02:10:01 35° SSW
Cosmos 1606 4.4 02:07:04 10° NW 02:09:18 17° W 02:09:18 17° W
Cosmos 1000 Rocket 4.5 02:06:35 10° N 02:12:53 90° WSW 02:18:00 16° S
CZ-2D R/B 2.1 02:08:30 10° NNE 02:13:50 86° ESE 02:17:02 25° SSW
ALOS 3.6 02:11:42 10° NNE 02:15:53 33° E 02:19:41 12° SSE
SL-08 R/B 4.5 02:12:46 24° SSW 02:16:52 81° W 02:23:08 10° N
Cosmos 1437 Rocket 3.3 02:16:19 32° WSW 02:17:30 42° WNW 02:21:06 10° N
ADEOS II 2.4 02:12:25 10° NNE 02:17:38 63° ESE 02:21:20 19° S
CZ-2C R/B 2.6 02:15:43 20° S 02:19:28 72° WSW 02:24:54 10° NNW
BREEZE-M DEB (TANK) 3.9 02:23:34 19° S 02:23:34 19° S 02:25:47 10° SSE
Alouette 2 Rocket 3.9 02:19:17 20° S 02:22:06 53° E 02:25:39 10° NNE
ASTEX 1 3.5 02:21:24 14° SSE 02:25:34 74° E 02:30:27 10° N
Cosmos 1607 3.9 02:19:48 10° NW 02:26:12 73° WSW 02:32:25 10° SSE
AQUA 4.2 02:21:58 10° NNE 02:26:39 59° E 02:30:10 17° S
Cosmos 2228 4.4 02:23:49 10° NW 02:27:08 22° W 02:28:11 20° WSW
ATLAS 5 CENTAUR R/B 2.5 02:26:52 18° SSE 02:28:22 25° ESE 02:31:15 10° ENE
FENGYUN 3A 3.7 02:24:30 10° NNE 02:29:55 79° ESE 02:33:57 18° S
Cosmos 1603 4.1 02:25:40 10° NW 02:31:02 42° WSW 02:34:48 18° SSW
Cosmos 1812 2.8 02:28:06 10° N 02:31:40 67° E 02:34:36 14° SSE
Cosmos 1943 4.4 02:31:52 10° NW 02:36:14 24° WSW 02:38:06 20° SW
Orbus 7S? 4.1 02:36:43 10° WNW 02:39:37 32° SW 02:44:35 10° SSE
Resurs 1-4 Rocket 2.4 02:35:42 10° N 02:40:49 53° WNW 02:44:24 19° SW
NPP 4.4 02:36:55 10° N 02:41:57 41° WNW 02:45:30 18° SW
Timation 2 Rocket 4.1 02:37:20 19° SSW 02:42:19 89° ESE 02:48:42 10° NNE
Cosmos 2058 3.0 02:40:06 17° S 02:43:07 75° E 02:47:13 10° NNE
Cosmos 1892 Rocket 3.7 02:43:31 21° SSW 02:46:24 63° W 02:50:49 10° N
BlueWalker 3 3.0 02:44:07 10° NW 02:47:44 46° NNE 02:51:21 10° ESE
SAR-Lupe-4 4.3 02:46:26 10° NNE 02:49:55 49° E 02:53:02 12° S
Cosmos 724 4.3 02:44:34 10° NW 02:50:18 61° WSW 02:56:03 10° SSE
Cosmos 2058 Rocket 3.0 02:46:56 10° N 02:51:23 89° E 02:55:45 10° S
USA 238 DEB 4.5 02:47:02 12° WSW 02:52:30 41° NW 02:58:53 10° NNE
USA 238 4.5 02:47:05 12° WSW 02:52:32 41° NW 02:58:57 10° NNE
NOSS 2-2 (C) 2.9 02:56:39 20° SSW 02:58:47 67° SE 03:01:52 10° NE
Cosmos 1544 2.1 02:57:59 20° S 02:59:37 89° SE 03:02:14 10° N
Envisat 3.9 02:55:41 10° NNE 03:00:35 47° E 03:05:27 10° S
Cosmos 1605 Rocket 4.0 02:55:47 10° S 03:01:58 85° E 03:08:06 10° N
NOSS 2-3 (D) 3.8 03:04:12 14° SSW 03:07:12 47° ESE 03:10:56 10° NE
USA 276 4.3 03:05:56 10° S 03:07:37 14° SE 03:09:16 10° ESE
Iridium 4 Rocket 3.3 03:03:11 10° N 03:07:47 80° W 03:12:48 10° S
Cosmos 1833 Rocket 3.6 03:02:33 10° NNW 03:08:06 54° ENE 03:13:37 10° SE
Cosmos 1626 Rocket 3.7 03:05:51 10° S 03:10:16 76° E 03:14:40 10° NNE
NOSS 2-2 (D) 3.2 03:08:22 14° SSW 03:11:04 54° SE 03:14:07 10° NE
Meteor 1-28 Rocket 3.7 03:10:56 13° SSW 03:13:47 36° W 03:17:05 10° NNW
IDEFIX/ARIANE 42P 4.2 03:10:39 10° NNW 03:14:30 21° WNW 03:18:18 10° WSW
Cosmos 1125 Rocket 4.2 03:10:51 13° SW 03:15:10 42° WNW 03:20:13 10° N
Cosmos-2242 3.3 03:13:01 10° N 03:17:19 72° E 03:21:35 10° SSE
METEOR-M 4.5 03:13:45 10° NNE 03:19:06 68° ESE 03:24:24 10° S
CZ-4 R/B 4.4 03:15:37 10° NNE 03:20:31 62° ESE 03:25:27 10° S
YAOGAN 6 4.1 03:17:55 10° NE 03:20:46 29° E 03:23:34 10° SSE
Cosmos 1943 Rocket 4.2 03:21:54 10° SSE 03:26:23 25° ESE 03:30:53 10° NE
Cosmos 1782 2.7 03:25:04 10° N 03:28:56 85° W 03:32:46 10° S
Cosmos 1378 3.7 03:26:18 10° N 03:29:30 52° E 03:32:41 10° SSE
USA 267 3.4 03:24:47 10° NE 03:31:20 74° SE 03:37:51 10° SW
Genesis I 3.4 03:28:26 10° NW 03:31:51 39° WSW 03:35:14 10° S
IRAS Rocket 4.3 03:27:25 10° N 03:32:52 65° WNW 03:38:18 10° SSW
UNK 4.0 03:29:04 10° S 03:33:32 50° W 03:37:59 10° NNW
NOSS 2-3 (E) 3.2 03:30:57 10° SW 03:34:32 77° NW 03:38:30 10° NE
Cosmos 220 Rocket 4.1 03:34:20 10° NNW 03:38:20 49° WSW 03:42:18 10° S
NOAA 11 4.3 03:33:11 10° NNE 03:38:42 89° WNW 03:44:09 10° SSW
SL-16 R/B 3.2 03:35:08 10° SSW 03:40:50 36° W 03:46:31 10° NNW
NOSS 2-3 (C) 3.3 03:37:24 10° SW 03:40:59 66° NW 03:44:56 10° NNE
BREEZE M DEB (TANK) 3.7 03:37:55 10° WNW 03:47:40 85° NNE 03:50:55 10° ESE
